weather.gov     
National Weather Service

Regional Weather Roundup
NWS Homepage
This page is being discontinued on March 12, 2014.
The same data is available at this site. Please update your bookmarks.
Thank you, and we apologize for the inconvenience.
Please send an email to SR-SRH.Webmaster@noaa.gov with any concerns.


Current Version
Previous Version:    01  02  03  04  05  06  07  08  09  10  11  12  13  14  15  16  17  18  19  20  21  22  23  24  25  26  27  28  29  30  
   31  32  33  34  35  36  37  38  39  40  41  42  43  44  45  46  47  48  49  50  51  52  53  
[Printable]
822
ASUS43 KLSX 251007
RWRMO

WEATHER SUMMARY FOR MISSOURI
NATIONAL WEATHER SERVICE SPRINGFIELD MO
500 AM CDT SAT OCT 25 2014

NOTE: "FAIR" INDICATES FEW OR NO CLOUDS BELOW 12,000 FEET WITH NO
       SIGNIFICANT WEATHER AND/OR OBSTRUCTIONS TO VISIBILITY.
       CURRENT SKY AND/OR WEATHER CONDITIONS ARE NOT AVAILABLE FOR
       CHILLICOTHE AND FARMINGTON.

MOZ001>031-035>038-043-044-053-054-251100-
...NORTHERN AND WESTERN MISSOURI...

CITY           SKY/WX    TMP DP  RH WIND       PRES   REMARKS
KANSAS CTY INT FOG       57  57 100 W5        30.02R VSB 1/4
KANSAS C DTWN  FOG       57  56  96 SW3       30.01R VSB 1/4
LEE`S SUMMIT   FOG       58  58 100 SW3       30.02R VSB 3/4
ST JOSEPH      FOG       50  50 100 CALM      30.02S VSB 1/2
CHILLICOTHE      N/A     53  52  96 CALM      30.02R
KIRKSVILLE     FOG       53  53 100 W3        30.00S VSB<1/4

$$
MOZ066>068-077>081-088>096-101>105-251100-
...SOUTHWEST MISSOURI...

CITY           SKY/WX    TMP DP  RH WIND       PRES   REMARKS
SPRINGFIELD    CLEAR     63  58  83 SW8       30.05F
JOPLIN         CLEAR     63  59  87 SW10      30.06S

$$
MOZ032>034-039>042-045>050-055>058-069>072-251100-
...CENTRAL MISSOURI...

CITY           SKY/WX    TMP DP  RH WIND       PRES   REMARKS
COLUMBIA       CLEAR     60  59  96 W5        30.01R FOG
JEFFERSON CITY FOG       55  55 100 CALM      30.01S VSB 1/4
ROLLA          PTCLDY    59  57  93 SW9       30.01R
SEDALIA        CLEAR     62  59  90 SW7       30.02R
WHITEMAN AFB   CLEAR     60  58  93 SW7       30.01R
OSAGE BEACH    PTCLDY    61  57  88 W3        30.03R

$$
MOZ051-052-059>065-251100-
...EAST CENTRAL MISSOURI...

CITY           SKY/WX    TMP DP  RH WIND       PRES   REMARKS
ST LOUIS INTL  PTCLDY    61  57  87 W6        29.99
SPIRIT OF STL  CLEAR     56  55  97 NW5       29.99R
ST CHARLES     PTCLDY    54  51  90 SW6       29.98S

$$
MOZ072>076-082>087-097>100-106>115-251100-
...SOUTH CENTRAL AND SOUTHEAST MISSOURI...

CITY           SKY/WX    TMP DP  RH WIND       PRES   REMARKS
CAPE GIRARDEAU CLEAR     52  50  93 CALM      30.02F
FARMINGTON     PTCLDY    55  54  94 CALM      30.03S
POPLAR BLUFF   CLEAR     56  53  90 SW3       30.03S FOG
WEST PLAINS    CLEAR     58  56  93 W9        30.07R

$$




U.S. Dept. of Commerce
NOAA National Weather Service
1325 East West Highway
Silver Spring, MD 20910
E-mail: w-nws.webmaster@noaa.gov
Page last modified: May 16, 2007
NATIONAL WEATHER SERVICE: for Safety, for Work, for Fun - FOR LIFE